ICE3VG BIKF-EKVG

Flight info

Callsign ICE3VG
Flight time 1h 14m
Altitude 37000
Route OSKUM3C OSKUM DCT MAGNI
Aircraft B763/H-SDE3FGHIM3RWXY/LB1

Departure

Time 2026-04-27 11:56
Airport Keflavik International Airport (BIKF)

Arrival

Time 2026-04-27 13:10
Airport Vágar Airport (EKVG)
Time Latitude Longitude Altitude Speed Heading
2026-04-27 11:10 63.99271 -22.62452 149 ft 0 kts
2026-04-27 11:45 63.99266 -22.62452 148 ft 2 kts
2026-04-27 11:46 63.99246 -22.62452 150 ft 3 kts
2026-04-27 11:46 63.99226 -22.62452 148 ft 3 kts
2026-04-27 11:46 63.99206 -22.62452 148 ft 3 kts
2026-04-27 11:46 63.99188 -22.62455 148 ft 3 kts 17°
2026-04-27 11:47 63.99177 -22.62470 148 ft 3 kts 56°
2026-04-27 11:47 63.99172 -22.62500 148 ft 2 kts 88°
2026-04-27 11:47 63.99172 -22.62504 148 ft 1 kts 90°
2026-04-27 11:47 63.99172 -22.62464 148 ft 3 kts 90°
2026-04-27 11:48 63.99172 -22.62427 148 ft 1 kts 90°
2026-04-27 11:48 63.99172 -22.62423 148 ft 0 kts 90°
2026-04-27 11:51 63.99172 -22.62409 148 ft 2 kts 90°
2026-04-27 11:51 63.99172 -22.62363 148 ft 4 kts 90°
2026-04-27 11:51 63.99172 -22.62109 148 ft 11 kts 90°
2026-04-27 11:52 63.99173 -22.61927 148 ft 12 kts 90°
2026-04-27 11:52 63.99173 -22.61756 152 ft 10 kts 90°
2026-04-27 11:52 63.99173 -22.61617 155 ft 8 kts 90°
2026-04-27 11:52 63.99173 -22.61498 157 ft 7 kts 89°
2026-04-27 11:53 63.99173 -22.61373 160 ft 10 kts 90°
2026-04-27 11:53 63.99173 -22.61147 165 ft 18 kts 90°
2026-04-27 11:53 63.99173 -22.60838 171 ft 20 kts 90°
2026-04-27 11:53 63.99169 -22.60587 180 ft 5 kts 114°
2026-04-27 11:54 63.99129 -22.60541 182 ft 9 kts 176°
2026-04-27 11:54 63.99093 -22.60540 182 ft 0 kts 180°
2026-04-27 11:55 63.99086 -22.60540 182 ft 6 kts 180°
2026-04-27 11:55 63.98784 -22.60542 179 ft 84 kts 180°
2026-04-27 11:55 63.97935 -22.60543 178 ft 158 kts 180°
2026-04-27 11:55 63.96672 -22.60522 634 ft 198 kts 178°
2026-04-27 11:56 63.95260 -22.59709 892 ft 222 kts 145°
2026-04-27 11:56 63.94284 -22.57020 1744 ft 224 kts 127°
2026-04-27 11:56 63.93494 -22.53937 2246 ft 228 kts 123°
2026-04-27 11:56 63.92830 -22.50619 2734 ft 233 kts 117°
2026-04-27 11:57 63.92233 -22.47171 3222 ft 236 kts 117°
2026-04-27 11:57 63.91631 -22.43667 3649 ft 239 kts 118°
2026-04-27 11:57 63.91004 -22.40201 4170 ft 240 kts 120°
2026-04-27 11:57 63.90352 -22.36675 4775 ft 244 kts 121°
2026-04-27 11:58 63.89686 -22.33072 5296 ft 250 kts 121°
2026-04-27 11:58 63.89010 -22.29369 5741 ft 261 kts 122°
2026-04-27 11:58 63.88304 -22.25492 6243 ft 269 kts 122°
2026-04-27 11:58 63.87589 -22.21559 6813 ft 272 kts 122°
2026-04-27 11:59 63.86855 -22.17574 7388 ft 275 kts 122°
2026-04-27 11:59 63.86111 -22.13539 7969 ft 278 kts 122°
2026-04-27 11:59 63.85363 -22.09481 8527 ft 281 kts 122°
2026-04-27 11:59 63.84648 -22.05301 9090 ft 287 kts 118°
2026-04-27 12:00 63.84048 -22.00937 9677 ft 291 kts 115°
2026-04-27 12:00 63.83521 -21.96448 10183 ft 298 kts 111°
2026-04-27 12:00 63.83190 -21.91599 10230 ft 325 kts 103°
2026-04-27 12:00 63.82947 -21.86348 10283 ft 344 kts 103°
2026-04-27 12:01 63.82644 -21.80854 10334 ft 359 kts 104°
2026-04-27 12:01 63.82310 -21.75127 10387 ft 374 kts 104°
2026-04-27 12:01 63.81974 -21.69192 10547 ft 383 kts 103°
2026-04-27 12:01 63.81637 -21.63176 10962 ft 387 kts 104°
2026-04-27 12:02 63.81284 -21.57120 11334 ft 389 kts 104°
2026-04-27 12:02 63.80931 -21.51026 11722 ft 391 kts 104°
2026-04-27 12:02 63.80576 -21.44907 12035 ft 394 kts 104°
2026-04-27 12:02 63.80209 -21.38741 12403 ft 396 kts 104°
2026-04-27 12:03 63.79842 -21.32549 12724 ft 398 kts 104°
2026-04-27 12:03 63.79471 -21.26322 13034 ft 400 kts 104°
2026-04-27 12:03 63.79095 -21.20078 13286 ft 402 kts 104°
2026-04-27 12:03 63.78714 -21.13802 13531 ft 403 kts 104°
2026-04-27 12:04 63.78326 -21.07510 13732 ft 404 kts 105°
2026-04-27 12:04 63.77907 -21.01199 13926 ft 405 kts 106°
2026-04-27 12:04 63.77273 -20.95048 14073 ft 400 kts 112°
2026-04-27 12:04 63.76531 -20.88980 14274 ft 401 kts 111°
2026-04-27 12:05 63.75828 -20.82947 14431 ft 403 kts 111°
2026-04-27 12:05 63.75102 -20.76753 14598 ft 403 kts 111°
2026-04-27 12:05 63.74383 -20.70700 14770 ft 405 kts 111°
2026-04-27 12:05 63.73643 -20.64480 14935 ft 406 kts 111°
2026-04-27 12:06 63.72907 -20.58313 15093 ft 407 kts 111°
2026-04-27 12:06 63.72168 -20.52133 15217 ft 409 kts 111°
2026-04-27 12:06 63.71682 -20.48019 15329 ft 410 kts 111°
2026-04-27 12:06 63.70838 -20.39668 15572 ft 416 kts 105°
2026-04-27 12:07 63.70381 -20.33208 15733 ft 417 kts 105°
2026-04-27 12:07 63.70056 -20.28839 15840 ft 417 kts 105°
2026-04-27 12:07 63.69392 -20.20281 16050 ft 419 kts 106°
2026-04-27 12:07 63.68892 -20.13812 16214 ft 420 kts 106°
2026-04-27 12:08 63.68553 -20.09438 16308 ft 421 kts 106°
2026-04-27 12:08 63.68048 -20.02978 16438 ft 421 kts 106°
2026-04-27 12:08 63.67537 -19.96463 16595 ft 422 kts 106°
2026-04-27 12:08 63.67022 -19.89955 16724 ft 423 kts 106°
2026-04-27 12:09 63.66501 -19.83408 16875 ft 424 kts 106°
2026-04-27 12:09 63.65975 -19.76846 17024 ft 425 kts 106°
2026-04-27 12:09 63.65449 -19.70289 17177 ft 426 kts 106°
2026-04-27 12:09 63.64914 -19.63705 17229 ft 429 kts 106°
2026-04-27 12:10 63.64370 -19.57097 17227 ft 430 kts 106°
2026-04-27 12:10 63.63836 -19.50467 17343 ft 430 kts 105°
2026-04-27 12:10 63.63295 -19.43868 17471 ft 431 kts 106°
2026-04-27 12:10 63.62734 -19.37215 17611 ft 432 kts 106°
2026-04-27 12:11 63.62179 -19.30573 17769 ft 433 kts 106°
2026-04-27 12:11 63.61621 -19.23903 17926 ft 434 kts 106°
2026-04-27 12:11 63.61058 -19.17231 18093 ft 435 kts 106°
2026-04-27 12:11 63.60490 -19.10548 18204 ft 436 kts 106°
2026-04-27 12:12 63.59917 -19.03851 18300 ft 437 kts 106°
2026-04-27 12:12 63.59342 -18.97150 18416 ft 435 kts 106°
2026-04-27 12:12 63.58773 -18.90547 18815 ft 426 kts 107°
2026-04-27 12:12 63.58199 -18.83974 19347 ft 431 kts 107°
2026-04-27 12:13 63.57614 -18.77311 19901 ft 436 kts 106°
2026-04-27 12:13 63.57024 -18.70597 20518 ft 440 kts 106°
2026-04-27 12:13 63.56431 -18.63850 21094 ft 444 kts 106°
2026-04-27 12:13 63.55822 -18.57023 21704 ft 447 kts 106°
2026-04-27 12:14 63.55208 -18.50162 22339 ft 450 kts 106°
2026-04-27 12:14 63.54587 -18.43256 22957 ft 453 kts 106°
2026-04-27 12:14 63.53959 -18.36320 23614 ft 455 kts 106°
2026-04-27 12:14 63.53332 -18.29439 24165 ft 457 kts 106°
2026-04-27 12:15 63.52683 -18.22342 24742 ft 459 kts 106°
2026-04-27 12:15 63.52036 -18.15326 25305 ft 460 kts 106°
2026-04-27 12:15 63.51386 -18.08310 25868 ft 461 kts 107°
2026-04-27 12:15 63.50739 -18.01357 26407 ft 462 kts 107°
2026-04-27 12:16 63.50078 -17.94303 26955 ft 462 kts 107°
2026-04-27 12:16 63.49411 -17.87246 27490 ft 463 kts 106°
2026-04-27 12:16 63.48745 -17.80216 28046 ft 463 kts 106°
2026-04-27 12:16 63.48074 -17.73136 28547 ft 464 kts 106°
2026-04-27 12:17 63.47394 -17.66063 29028 ft 466 kts 106°
2026-04-27 12:17 63.46709 -17.58963 29519 ft 467 kts 106°
2026-04-27 12:17 63.46022 -17.51869 30023 ft 467 kts 107°
2026-04-27 12:17 63.45330 -17.44766 30469 ft 468 kts 107°
2026-04-27 12:18 63.44634 -17.37663 30920 ft 468 kts 107°
2026-04-27 12:18 63.43935 -17.30573 31362 ft 467 kts 107°
2026-04-27 12:18 63.43233 -17.23489 31814 ft 467 kts 107°
2026-04-27 12:18 63.42528 -17.16408 32251 ft 467 kts 107°
2026-04-27 12:19 63.41821 -17.09351 32677 ft 467 kts 107°
2026-04-27 12:19 63.41106 -17.02256 33085 ft 467 kts 107°
2026-04-27 12:19 63.40390 -16.95207 33516 ft 467 kts 107°
2026-04-27 12:19 63.39673 -16.88126 33951 ft 466 kts 107°
2026-04-27 12:20 63.38954 -16.81101 34337 ft 466 kts 107°
2026-04-27 12:20 63.38236 -16.74148 34663 ft 466 kts 107°
2026-04-27 12:20 63.37497 -16.67006 35014 ft 466 kts 107°
2026-04-27 12:20 63.36766 -16.59959 35366 ft 466 kts 107°
2026-04-27 12:21 63.36032 -16.52934 35719 ft 466 kts 107°
2026-04-27 12:21 63.35293 -16.45907 36075 ft 465 kts 106°
2026-04-27 12:21 63.34561 -16.38976 36434 ft 465 kts 106°
2026-04-27 12:21 63.33820 -16.31992 36801 ft 464 kts 106°
2026-04-27 12:22 63.33069 -16.24966 36988 ft 468 kts 106°
2026-04-27 12:22 63.31534 -16.10680 37071 ft 481 kts 106°
2026-04-27 12:23 63.29937 -15.95988 37094 ft 495 kts 106°
2026-04-27 12:23 63.28283 -15.80929 37095 ft 508 kts 106°
2026-04-27 12:24 63.26570 -15.65495 37092 ft 520 kts 107°
2026-04-27 12:24 63.24802 -15.49748 37099 ft 528 kts 107°
2026-04-27 12:24 63.23919 -15.41935 37075 ft 517 kts 107°
2026-04-27 12:25 63.23042 -15.34240 37081 ft 513 kts 107°
2026-04-27 12:25 63.21297 -15.19011 37088 ft 505 kts 106°
2026-04-27 12:26 63.19542 -15.03898 37111 ft 509 kts 106°
2026-04-27 12:26 63.17760 -14.88667 37128 ft 513 kts 106°
2026-04-27 12:27 63.15946 -14.73346 37126 ft 516 kts 106°
2026-04-27 12:27 63.14103 -14.57933 37127 ft 519 kts 106°
2026-04-27 12:28 63.12233 -14.42479 37136 ft 522 kts 106°
2026-04-27 12:28 63.10340 -14.26928 37148 ft 525 kts 106°
2026-04-27 12:29 63.08417 -14.11353 37145 ft 527 kts 106°
2026-04-27 12:29 63.06474 -13.95754 37151 ft 529 kts 106°
2026-04-27 12:30 63.04502 -13.80090 37154 ft 530 kts 106°
2026-04-27 12:30 63.02517 -13.64467 37159 ft 531 kts 106°
2026-04-27 12:31 63.00520 -13.48911 37167 ft 531 kts 106°
2026-04-27 12:31 62.98481 -13.33200 37173 ft 531 kts 106°
2026-04-27 12:32 62.96452 -13.17699 37182 ft 531 kts 106°
2026-04-27 12:32 62.94394 -13.02141 37182 ft 531 kts 106°
2026-04-27 12:33 62.92321 -12.86612 37182 ft 526 kts 107°
2026-04-27 12:33 62.90252 -12.71284 37205 ft 520 kts 106°
2026-04-27 12:34 62.88191 -12.56118 37252 ft 518 kts 106°
2026-04-27 12:34 62.86116 -12.41012 37200 ft 516 kts 106°
2026-04-27 12:35 62.84039 -12.26034 37187 ft 512 kts 106°
2026-04-27 12:35 62.81961 -12.11175 37196 ft 508 kts 106°
2026-04-27 12:36 62.79885 -11.96467 37226 ft 505 kts 106°
2026-04-27 12:36 62.77805 -11.81841 37216 ft 503 kts 106°
2026-04-27 12:37 62.75717 -11.67314 37225 ft 501 kts 106°
2026-04-27 12:37 62.73621 -11.52840 37236 ft 499 kts 106°
2026-04-27 12:38 62.71520 -11.38452 37254 ft 498 kts 106°
2026-04-27 12:38 62.69405 -11.24092 37232 ft 497 kts 107°
2026-04-27 12:39 62.67277 -11.09788 37234 ft 496 kts 106°
2026-04-27 12:39 62.65151 -10.95557 37241 ft 494 kts 106°
2026-04-27 12:40 62.63012 -10.81395 37242 ft 493 kts 106°
2026-04-27 12:40 62.60861 -10.67270 37251 ft 491 kts 106°
2026-04-27 12:41 62.58702 -10.53196 37256 ft 490 kts 107°
2026-04-27 12:41 62.57618 -10.46168 36899 ft 493 kts 107°
2026-04-27 12:41 62.56509 -10.38997 35561 ft 511 kts 107°
2026-04-27 12:41 62.55366 -10.31686 35026 ft 507 kts 107°
2026-04-27 12:42 62.54244 -10.24512 34503 ft 500 kts 107°
2026-04-27 12:42 62.53128 -10.17356 33543 ft 501 kts 107°
2026-04-27 12:42 62.52004 -10.10232 32577 ft 501 kts 107°
2026-04-27 12:42 62.50874 -10.03093 31609 ft 501 kts 107°
2026-04-27 12:43 62.49755 -9.96044 30784 ft 499 kts 107°
2026-04-27 12:43 62.48620 -9.88924 30080 ft 491 kts 108°
2026-04-27 12:43 62.47523 -9.82075 29314 ft 483 kts 108°
2026-04-27 12:43 62.46431 -9.75273 28565 ft 475 kts 107°
2026-04-27 12:44 62.45354 -9.68578 27804 ft 469 kts 108°
2026-04-27 12:44 62.44287 -9.61991 27059 ft 462 kts 108°
2026-04-27 12:44 62.43230 -9.55485 26336 ft 456 kts 108°
2026-04-27 12:44 62.42183 -9.49074 25611 ft 450 kts 108°
2026-04-27 12:45 62.41154 -9.42757 24903 ft 444 kts 108°
2026-04-27 12:45 62.40130 -9.36515 24203 ft 438 kts 108°
2026-04-27 12:45 62.39116 -9.30364 23426 ft 432 kts 108°
2026-04-27 12:45 62.38117 -9.24314 22580 ft 426 kts 108°
2026-04-27 12:46 62.37125 -9.18325 21781 ft 421 kts 109°
2026-04-27 12:46 62.36141 -9.12412 20981 ft 416 kts 109°
2026-04-27 12:46 62.35169 -9.06588 20205 ft 412 kts 109°
2026-04-27 12:46 62.34204 -9.00815 19416 ft 407 kts 109°
2026-04-27 12:47 62.33247 -8.95115 18676 ft 403 kts 109°
2026-04-27 12:47 62.32300 -8.89495 17865 ft 398 kts 110°
2026-04-27 12:47 62.31363 -8.83943 17071 ft 392 kts 110°
2026-04-27 12:47 62.30437 -8.78475 16295 ft 386 kts 110°
2026-04-27 12:48 62.29523 -8.73105 15593 ft 379 kts 110°
2026-04-27 12:48 62.28926 -8.69594 15110 ft 375 kts 110°
2026-04-27 12:48 62.28037 -8.64372 14375 ft 370 kts 110°
2026-04-27 12:48 62.27154 -8.59214 13588 ft 365 kts 110°
2026-04-27 12:49 62.26282 -8.54133 12789 ft 360 kts 110°
2026-04-27 12:49 62.25421 -8.49140 12034 ft 354 kts 110°
2026-04-27 12:49 62.24300 -8.42630 11065 ft 347 kts 111°
2026-04-27 12:49 62.23742 -8.39402 10811 ft 336 kts 111°
2026-04-27 12:50 62.22696 -8.33381 10377 ft 315 kts 111°
2026-04-27 12:50 62.22185 -8.30446 10139 ft 306 kts 111°
2026-04-27 12:50 62.21455 -8.26256 9769 ft 294 kts 111°
2026-04-27 12:50 62.20751 -8.22222 9346 ft 286 kts 111°
2026-04-27 12:51 62.20056 -8.18250 8829 ft 283 kts 111°
2026-04-27 12:51 62.19364 -8.14307 8370 ft 285 kts 112°
2026-04-27 12:51 62.18671 -8.10358 8180 ft 281 kts 112°
2026-04-27 12:51 62.17986 -8.06467 8079 ft 278 kts 112°
2026-04-27 12:52 62.17299 -8.02575 8054 ft 281 kts 112°
2026-04-27 12:52 62.16610 -7.98671 7912 ft 280 kts 112°
2026-04-27 12:52 62.15931 -7.94838 7521 ft 278 kts 112°
2026-04-27 12:52 62.15247 -7.90986 7029 ft 276 kts 112°
2026-04-27 12:53 62.14018 -7.83237 6018 ft 271 kts 105°
2026-04-27 12:53 62.13568 -7.79352 5541 ft 267 kts 107°
2026-04-27 12:53 62.13320 -7.75445 5029 ft 267 kts 84°
2026-04-27 12:54 62.13933 -7.71740 4518 ft 266 kts 57°
2026-04-27 12:54 62.14695 -7.68188 4247 ft 268 kts 81°
2026-04-27 12:54 62.14600 -7.64275 4126 ft 258 kts 111°
2026-04-27 12:54 62.13667 -7.61134 4096 ft 255 kts 141°
2026-04-27 12:55 62.12329 -7.58670 4052 ft 255 kts 134°
2026-04-27 12:55 62.11253 -7.55653 3740 ft 256 kts 126°
2026-04-27 12:55 62.10323 -7.52356 3277 ft 255 kts 121°
2026-04-27 12:55 62.09511 -7.49054 3062 ft 242 kts 119°
2026-04-27 12:56 62.08807 -7.45975 3077 ft 222 kts 118°
2026-04-27 12:56 62.08177 -7.43081 2911 ft 213 kts 116°
2026-04-27 12:56 62.07638 -7.40106 2731 ft 217 kts 111°
2026-04-27 12:56 62.07164 -7.37044 2612 ft 218 kts 110°
2026-04-27 12:57 62.06692 -7.33948 2430 ft 222 kts 111°
2026-04-27 12:57 62.06195 -7.30860 2241 ft 216 kts 112°
2026-04-27 12:57 62.05694 -7.27870 1944 ft 211 kts 112°
2026-04-27 12:57 62.05205 -7.24940 1543 ft 208 kts 112°
2026-04-27 12:58 62.04622 -7.22255 1321 ft 188 kts 142°
2026-04-27 12:58 62.03422 -7.21662 1904 ft 200 kts 212°
2026-04-27 12:58 62.02162 -7.23448 2549 ft 231 kts 216°
2026-04-27 12:58 62.00965 -7.25212 3000 ft 192 kts 213°
2026-04-27 12:59 61.99742 -7.26377 2733 ft 204 kts 207°
2026-04-27 12:59 61.98468 -7.27619 2833 ft 199 kts 206°
2026-04-27 12:59 61.97193 -7.28856 2996 ft 203 kts 206°
2026-04-27 12:59 61.95931 -7.30105 3639 ft 192 kts 207°
2026-04-27 13:00 61.94691 -7.31335 4049 ft 207 kts 207°
2026-04-27 13:00 61.93367 -7.32657 4032 ft 208 kts 207°
2026-04-27 13:00 61.92031 -7.33715 4009 ft 204 kts 206°
2026-04-27 13:00 61.90826 -7.35323 3900 ft 204 kts 218°
2026-04-27 13:01 61.89718 -7.37126 3915 ft 200 kts 220°
2026-04-27 13:01 61.88654 -7.39059 3941 ft 201 kts 233°
2026-04-27 13:01 61.88138 -7.41812 3573 ft 208 kts 269°
2026-04-27 13:01 61.88534 -7.44811 2940 ft 222 kts 304°
2026-04-27 13:02 61.89738 -7.46825 2584 ft 224 kts 339°
2026-04-27 13:02 61.91254 -7.47037 2304 ft 221 kts 14°
2026-04-27 13:02 61.92628 -7.45510 1808 ft 226 kts 37°
2026-04-27 13:02 61.93820 -7.43463 1679 ft 213 kts 40°
2026-04-27 13:03 61.94874 -7.41393 1467 ft 203 kts 55°
2026-04-27 13:03 61.95515 -7.38733 1107 ft 194 kts 69°
2026-04-27 13:03 61.96015 -7.36140 1226 ft 197 kts 69°
2026-04-27 13:03 61.96494 -7.33421 1405 ft 197 kts 71°
2026-04-27 13:04 61.96957 -7.30658 1630 ft 195 kts 71°
2026-04-27 13:04 61.97400 -7.27941 2060 ft 196 kts 72°
2026-04-27 13:04 61.97836 -7.25202 2509 ft 193 kts 72°
2026-04-27 13:04 61.98259 -7.22413 2611 ft 203 kts 73°
2026-04-27 13:05 61.98676 -7.19603 2584 ft 192 kts 72°
2026-04-27 13:05 61.99125 -7.16919 2715 ft 193 kts 73°
2026-04-27 13:05 61.99024 -7.14088 2335 ft 193 kts 114°
2026-04-27 13:05 61.98566 -7.11602 2612 ft 181 kts 113°
2026-04-27 13:06 61.98315 -7.08912 2945 ft 190 kts 91°
2026-04-27 13:06 61.98590 -7.06262 3045 ft 179 kts 63°
2026-04-27 13:06 61.99331 -7.04253 2972 ft 170 kts 37°
2026-04-27 13:06 62.00405 -7.03100 2778 ft 181 kts
2026-04-27 13:07 62.01599 -7.03377 2327 ft 165 kts 320°
2026-04-27 13:07 62.02114 -7.05330 2237 ft 155 kts 282°
2026-04-27 13:07 62.02382 -7.07598 2218 ft 159 kts 282°
2026-04-27 13:07 62.02680 -7.09893 2055 ft 162 kts 283°
2026-04-27 13:08 62.02936 -7.12213 1787 ft 161 kts 279°
2026-04-27 13:08 62.03210 -7.14474 1619 ft 150 kts 287°
2026-04-27 13:08 62.03612 -7.16467 1670 ft 146 kts 291°
2026-04-27 13:08 62.04049 -7.18380 1647 ft 143 kts 293°
2026-04-27 13:09 62.04512 -7.20297 1203 ft 144 kts 295°
2026-04-27 13:09 62.04969 -7.22209 669 ft 142 kts 297°
2026-04-27 13:09 62.05413 -7.23908 456 ft 129 kts 297°
2026-04-27 13:09 62.05847 -7.25666 351 ft 138 kts 297°
2026-04-27 13:10 62.06263 -7.27342 294 ft 102 kts 298°
2026-04-27 13:10 62.06497 -7.28280 288 ft 52 kts 298°
2026-04-27 13:10 62.06622 -7.28782 282 ft 31 kts 298°
2026-04-27 13:10 62.06678 -7.29006 278 ft 14 kts 298°
2026-04-27 13:11 62.06705 -7.29151 276 ft 6 kts 277°
2026-04-27 13:11 62.06723 -7.29210 275 ft 3 kts
2026-04-27 13:11 62.06726 -7.29168 275 ft 10 kts 122°
2026-04-27 13:11 62.06690 -7.29052 278 ft 7 kts 118°
2026-04-27 13:12 62.06666 -7.28957 279 ft 9 kts 118°
2026-04-27 13:12 62.06635 -7.28833 281 ft 11 kts 118°
2026-04-27 13:12 62.06596 -7.28678 283 ft 13 kts 118°
2026-04-27 13:12 62.06550 -7.28492 286 ft 15 kts 118°
2026-04-27 13:13 62.06502 -7.28297 288 ft 10 kts 117°
2026-04-27 13:13 62.06492 -7.28181 288 ft 7 kts 61°
2026-04-27 13:13 62.06536 -7.28117 287 ft 7 kts 23°
2026-04-27 13:13 62.06586 -7.28091 286 ft 7 kts
2026-04-27 13:14 62.06624 -7.28091 286 ft 0 kts 356°
2026-04-27 13:14 62.06654 -7.28102 287 ft 8 kts 345°
2026-04-27 13:15 62.06695 -7.28151 287 ft 6 kts 315°
2026-04-27 13:15 62.06718 -7.28220 287 ft 6 kts 303°
2026-04-27 13:15 62.06725 -7.28246 287 ft 1 kts 295°
2026-04-27 13:15 62.06739 -7.28293 287 ft 3 kts 340°
2026-04-27 13:16 62.06750 -7.28282 287 ft 1 kts 54°
2026-04-27 13:16 62.06750 -7.28266 287 ft 1 kts 99°
2026-04-27 13:16 62.06746 -7.28254 289 ft 1 kts 141°
2026-04-27 13:16 62.06734 -7.28250 287 ft 2 kts 165°
2026-04-27 13:17 62.06697 -7.28159 287 ft 17 kts 129°
2026-04-27 13:17 62.06595 -7.28086 286 ft 13 kts 165°
2026-04-27 13:17 62.06579 -7.28018 285 ft 7 kts 93°
2026-04-27 13:17 62.06580 -7.27956 284 ft 1 kts 58°
2026-04-27 13:18 62.06585 -7.27947 284 ft 0 kts 39°